Index of /20260501/WXO-DD/model_gdps/15km/00/003
Name Last modified Size Description
Parent Directory -
20260501T00Z_MSC_GDPS_AbsoluteVorticity_IsbL-0200_LatLon0.15_PT003H.grib2 2026-05-01 03:55 1.5M
20260501T00Z_MSC_GDPS_AbsoluteVorticity_IsbL-0250_LatLon0.15_PT003H.grib2 2026-05-01 03:55 1.3M
20260501T00Z_MSC_GDPS_AbsoluteVorticity_IsbL-0500_LatLon0.15_PT003H.grib2 2026-05-01 03:55 1.4M
20260501T00Z_MSC_GDPS_AbsoluteVorticity_IsbL-0700_LatLon0.15_PT003H.grib2 2026-05-01 03:55 1.3M
20260501T00Z_MSC_GDPS_AbsoluteVorticity_IsbL-0850_LatLon0.15_PT003H.grib2 2026-05-01 03:55 1.6M
20260501T00Z_MSC_GDPS_AirTemp_AGL-120m_LatLon0.15_PT003H.grib2 2026-05-01 03:55 897K
20260501T00Z_MSC_GDPS_AirTemp_AGL-2m_LatLon0.15_PT003H.grib2 2026-05-01 03:55 1.0M
20260501T00Z_MSC_GDPS_AirTemp_AGL-40m_LatLon0.15_PT003H.grib2 2026-05-01 03:55 801K
20260501T00Z_MSC_GDPS_AirTemp_AGL-80m_LatLon0.15_PT003H.grib2 2026-05-01 03:55 789K
20260501T00Z_MSC_GDPS_AirTemp_IsbL-0001_LatLon0.15_PT003H.grib2 2026-05-01 03:55 652K
20260501T00Z_MSC_GDPS_AirTemp_IsbL-0005_LatLon0.15_PT003H.grib2 2026-05-01 03:55 684K
20260501T00Z_MSC_GDPS_AirTemp_IsbL-0010_LatLon0.15_PT003H.grib2 2026-05-01 03:55 694K
20260501T00Z_MSC_GDPS_AirTemp_IsbL-0020_LatLon0.15_PT003H.grib2 2026-05-01 03:55 785K
20260501T00Z_MSC_GDPS_AirTemp_IsbL-0030_LatLon0.15_PT003H.grib2 2026-05-01 03:55 747K
20260501T00Z_MSC_GDPS_AirTemp_IsbL-0050_LatLon0.15_PT003H.grib2 2026-05-01 03:55 805K
20260501T00Z_MSC_GDPS_AirTemp_IsbL-0100_LatLon0.15_PT003H.grib2 2026-05-01 03:55 949K
20260501T00Z_MSC_GDPS_AirTemp_IsbL-0150_LatLon0.15_PT003H.grib2 2026-05-01 03:55 969K
20260501T00Z_MSC_GDPS_AirTemp_IsbL-0175_LatLon0.15_PT003H.grib2 2026-05-01 03:55 952K
20260501T00Z_MSC_GDPS_AirTemp_IsbL-0200_LatLon0.15_PT003H.grib2 2026-05-01 03:55 966K
20260501T00Z_MSC_GDPS_AirTemp_IsbL-0225_LatLon0.15_PT003H.grib2 2026-05-01 03:55 1.0M
20260501T00Z_MSC_GDPS_AirTemp_IsbL-0250_LatLon0.15_PT003H.grib2 2026-05-01 03:55 1.0M
20260501T00Z_MSC_GDPS_AirTemp_IsbL-0275_LatLon0.15_PT003H.grib2 2026-05-01 03:55 1.0M
20260501T00Z_MSC_GDPS_AirTemp_IsbL-0300_LatLon0.15_PT003H.grib2 2026-05-01 03:55 944K
20260501T00Z_MSC_GDPS_AirTemp_IsbL-0350_LatLon0.15_PT003H.grib2 2026-05-01 03:55 927K
20260501T00Z_MSC_GDPS_AirTemp_IsbL-0400_LatLon0.15_PT003H.grib2 2026-05-01 03:55 936K
20260501T00Z_MSC_GDPS_AirTemp_IsbL-0450_LatLon0.15_PT003H.grib2 2026-05-01 03:55 954K
20260501T00Z_MSC_GDPS_AirTemp_IsbL-0500_LatLon0.15_PT003H.grib2 2026-05-01 03:55 759K
20260501T00Z_MSC_GDPS_AirTemp_IsbL-0550_LatLon0.15_PT003H.grib2 2026-05-01 03:55 793K
20260501T00Z_MSC_GDPS_AirTemp_IsbL-0600_LatLon0.15_PT003H.grib2 2026-05-01 03:55 888K
20260501T00Z_MSC_GDPS_AirTemp_IsbL-0650_LatLon0.15_PT003H.grib2 2026-05-01 03:55 914K
20260501T00Z_MSC_GDPS_AirTemp_IsbL-0700_LatLon0.15_PT003H.grib2 2026-05-01 03:55 944K
20260501T00Z_MSC_GDPS_AirTemp_IsbL-0750_LatLon0.15_PT003H.grib2 2026-05-01 03:55 1.0M
20260501T00Z_MSC_GDPS_AirTemp_IsbL-0800_LatLon0.15_PT003H.grib2 2026-05-01 03:55 1.0M
20260501T00Z_MSC_GDPS_AirTemp_IsbL-0850_LatLon0.15_PT003H.grib2 2026-05-01 03:55 1.1M
20260501T00Z_MSC_GDPS_AirTemp_IsbL-0875_LatLon0.15_PT003H.grib2 2026-05-01 03:55 1.1M
20260501T00Z_MSC_GDPS_AirTemp_IsbL-0900_LatLon0.15_PT003H.grib2 2026-05-01 03:55 1.1M
20260501T00Z_MSC_GDPS_AirTemp_IsbL-0925_LatLon0.15_PT003H.grib2 2026-05-01 03:55 1.1M
20260501T00Z_MSC_GDPS_AirTemp_IsbL-0950_LatLon0.15_PT003H.grib2 2026-05-01 03:55 1.1M
20260501T00Z_MSC_GDPS_AirTemp_IsbL-0970_LatLon0.15_PT003H.grib2 2026-05-01 03:55 1.1M
20260501T00Z_MSC_GDPS_AirTemp_IsbL-0985_LatLon0.15_PT003H.grib2 2026-05-01 03:55 1.1M
20260501T00Z_MSC_GDPS_AirTemp_IsbL-1000_LatLon0.15_PT003H.grib2 2026-05-01 03:55 1.1M
20260501T00Z_MSC_GDPS_AirTemp_IsbL-1015_LatLon0.15_PT003H.grib2 2026-05-01 03:55 1.1M
20260501T00Z_MSC_GDPS_Albedo_Sfc_LatLon0.15_PT003H.grib2 2026-05-01 03:55 244K
20260501T00Z_MSC_GDPS_CAPE_Sfc_LatLon0.15_PT003H.grib2 2026-05-01 03:55 3.9M
20260501T00Z_MSC_GDPS_CIN_Sfc_LatLon0.15_PT003H.grib2 2026-05-01 03:55 2.9M
20260501T00Z_MSC_GDPS_CloudWater_EAtm_LatLon0.15_PT003H.grib2 2026-05-01 03:55 524K
20260501T00Z_MSC_GDPS_ConvectivePrecip-Accum_Sfc_LatLon0.15_PT003H.grib2 2026-05-01 03:55 1.3M
20260501T00Z_MSC_GDPS_DewPointDepression_AGL-2m_LatLon0.15_PT003H.grib2 2026-05-01 03:55 759K
20260501T00Z_MSC_GDPS_DewPointDepression_IsbL-0010_LatLon0.15_PT003H.grib2 2026-05-01 03:55 60K
20260501T00Z_MSC_GDPS_DewPointDepression_IsbL-0020_LatLon0.15_PT003H.grib2 2026-05-01 03:55 65K
20260501T00Z_MSC_GDPS_DewPointDepression_IsbL-0030_LatLon0.15_PT003H.grib2 2026-05-01 03:55 77K
20260501T00Z_MSC_GDPS_DewPointDepression_IsbL-0050_LatLon0.15_PT003H.grib2 2026-05-01 03:55 368K
20260501T00Z_MSC_GDPS_DewPointDepression_IsbL-0100_LatLon0.15_PT003H.grib2 2026-05-01 03:55 411K
20260501T00Z_MSC_GDPS_DewPointDepression_IsbL-0150_LatLon0.15_PT003H.grib2 2026-05-01 03:55 467K
20260501T00Z_MSC_GDPS_DewPointDepression_IsbL-0175_LatLon0.15_PT003H.grib2 2026-05-01 03:55 562K
20260501T00Z_MSC_GDPS_DewPointDepression_IsbL-0200_LatLon0.15_PT003H.grib2 2026-05-01 03:55 688K
20260501T00Z_MSC_GDPS_DewPointDepression_IsbL-0225_LatLon0.15_PT003H.grib2 2026-05-01 03:55 799K
20260501T00Z_MSC_GDPS_DewPointDepression_IsbL-0250_LatLon0.15_PT003H.grib2 2026-05-01 03:55 882K
20260501T00Z_MSC_GDPS_DewPointDepression_IsbL-0275_LatLon0.15_PT003H.grib2 2026-05-01 03:55 889K
20260501T00Z_MSC_GDPS_DewPointDepression_IsbL-0300_LatLon0.15_PT003H.grib2 2026-05-01 03:55 929K
20260501T00Z_MSC_GDPS_DewPointDepression_IsbL-0350_LatLon0.15_PT003H.grib2 2026-05-01 03:55 949K
20260501T00Z_MSC_GDPS_DewPointDepression_IsbL-0400_LatLon0.15_PT003H.grib2 2026-05-01 03:55 1.0M
20260501T00Z_MSC_GDPS_DewPointDepression_IsbL-0450_LatLon0.15_PT003H.grib2 2026-05-01 03:55 1.0M
20260501T00Z_MSC_GDPS_DewPointDepression_IsbL-0500_LatLon0.15_PT003H.grib2 2026-05-01 03:55 1.0M
20260501T00Z_MSC_GDPS_DewPointDepression_IsbL-0550_LatLon0.15_PT003H.grib2 2026-05-01 03:55 1.0M
20260501T00Z_MSC_GDPS_DewPointDepression_IsbL-0600_LatLon0.15_PT003H.grib2 2026-05-01 03:55 1.0M
20260501T00Z_MSC_GDPS_DewPointDepression_IsbL-0650_LatLon0.15_PT003H.grib2 2026-05-01 03:55 1.0M
20260501T00Z_MSC_GDPS_DewPointDepression_IsbL-0700_LatLon0.15_PT003H.grib2 2026-05-01 03:55 1.1M
20260501T00Z_MSC_GDPS_DewPointDepression_IsbL-0750_LatLon0.15_PT003H.grib2 2026-05-01 03:55 1.1M
20260501T00Z_MSC_GDPS_DewPointDepression_IsbL-0800_LatLon0.15_PT003H.grib2 2026-05-01 03:55 1.1M
20260501T00Z_MSC_GDPS_DewPointDepression_IsbL-0850_LatLon0.15_PT003H.grib2 2026-05-01 03:55 1.1M
20260501T00Z_MSC_GDPS_DewPointDepression_IsbL-0875_LatLon0.15_PT003H.grib2 2026-05-01 03:55 1.1M
20260501T00Z_MSC_GDPS_DewPointDepression_IsbL-0900_LatLon0.15_PT003H.grib2 2026-05-01 03:55 1.1M
20260501T00Z_MSC_GDPS_DewPointDepression_IsbL-0925_LatLon0.15_PT003H.grib2 2026-05-01 03:55 1.0M
20260501T00Z_MSC_GDPS_DewPointDepression_IsbL-0950_LatLon0.15_PT003H.grib2 2026-05-01 03:55 1.0M
20260501T00Z_MSC_GDPS_DewPointDepression_IsbL-0970_LatLon0.15_PT003H.grib2 2026-05-01 03:55 1.0M
20260501T00Z_MSC_GDPS_DewPointDepression_IsbL-0985_LatLon0.15_PT003H.grib2 2026-05-01 03:55 1.0M
20260501T00Z_MSC_GDPS_DewPointDepression_IsbL-1000_LatLon0.15_PT003H.grib2 2026-05-01 03:55 969K
20260501T00Z_MSC_GDPS_DewPointDepression_IsbL-1015_LatLon0.15_PT003H.grib2 2026-05-01 03:55 910K
20260501T00Z_MSC_GDPS_DewPoint_AGL-2m_LatLon0.15_PT003H.grib2 2026-05-01 03:55 598K
20260501T00Z_MSC_GDPS_DownwardLongwaveRadiationFlux-Accum_Sfc_LatLon0.15_PT003H.grib2 2026-05-01 03:55 1.0M
20260501T00Z_MSC_GDPS_DownwardShortwaveRadiationFlux-Accum_NTAtm_LatLon0.15_PT003H.grib2 2026-05-01 03:55 212K
20260501T00Z_MSC_GDPS_DownwardShortwaveRadiationFlux-Accum_Sfc_LatLon0.15_PT003H.grib2 2026-05-01 03:55 583K
20260501T00Z_MSC_GDPS_FreezingRain-Accum1h_Sfc_LatLon0.15_PT003H.grib2 2026-05-01 03:55 40K
20260501T00Z_MSC_GDPS_FreezingRain-Accum3h_Sfc_LatLon0.15_PT003H.grib2 2026-05-01 03:55 52K
20260501T00Z_MSC_GDPS_FreezingRain-Accum_Sfc_LatLon0.15_PT003H.grib2 2026-05-01 03:55 66K
20260501T00Z_MSC_GDPS_GeopotentialHeight_IsbL-0001_LatLon0.15_PT003H.grib2 2026-05-01 03:55 426K
20260501T00Z_MSC_GDPS_GeopotentialHeight_IsbL-0005_LatLon0.15_PT003H.grib2 2026-05-01 03:55 486K
20260501T00Z_MSC_GDPS_GeopotentialHeight_IsbL-0010_LatLon0.15_PT003H.grib2 2026-05-01 03:55 473K
20260501T00Z_MSC_GDPS_GeopotentialHeight_IsbL-0020_LatLon0.15_PT003H.grib2 2026-05-01 03:55 409K
20260501T00Z_MSC_GDPS_GeopotentialHeight_IsbL-0030_LatLon0.15_PT003H.grib2 2026-05-01 03:55 564K
20260501T00Z_MSC_GDPS_GeopotentialHeight_IsbL-0050_LatLon0.15_PT003H.grib2 2026-05-01 03:55 568K
20260501T00Z_MSC_GDPS_GeopotentialHeight_IsbL-0100_LatLon0.15_PT003H.grib2 2026-05-01 03:55 603K
20260501T00Z_MSC_GDPS_GeopotentialHeight_IsbL-0150_LatLon0.15_PT003H.grib2 2026-05-01 03:55 621K
20260501T00Z_MSC_GDPS_GeopotentialHeight_IsbL-0175_LatLon0.15_PT003H.grib2 2026-05-01 03:55 624K
20260501T00Z_MSC_GDPS_GeopotentialHeight_IsbL-0200_LatLon0.15_PT003H.grib2 2026-05-01 03:55 629K
20260501T00Z_MSC_GDPS_GeopotentialHeight_IsbL-0225_LatLon0.15_PT003H.grib2 2026-05-01 03:55 626K
20260501T00Z_MSC_GDPS_GeopotentialHeight_IsbL-0250_LatLon0.15_PT003H.grib2 2026-05-01 03:55 635K
20260501T00Z_MSC_GDPS_GeopotentialHeight_IsbL-0275_LatLon0.15_PT003H.grib2 2026-05-01 03:55 634K
20260501T00Z_MSC_GDPS_GeopotentialHeight_IsbL-0300_LatLon0.15_PT003H.grib2 2026-05-01 03:55 633K
20260501T00Z_MSC_GDPS_GeopotentialHeight_IsbL-0350_LatLon0.15_PT003H.grib2 2026-05-01 03:55 622K
20260501T00Z_MSC_GDPS_GeopotentialHeight_IsbL-0400_LatLon0.15_PT003H.grib2 2026-05-01 03:55 616K
20260501T00Z_MSC_GDPS_GeopotentialHeight_IsbL-0450_LatLon0.15_PT003H.grib2 2026-05-01 03:55 608K
20260501T00Z_MSC_GDPS_GeopotentialHeight_IsbL-0500_LatLon0.15_PT003H.grib2 2026-05-01 03:55 530K
20260501T00Z_MSC_GDPS_GeopotentialHeight_IsbL-0550_LatLon0.15_PT003H.grib2 2026-05-01 03:55 524K
20260501T00Z_MSC_GDPS_GeopotentialHeight_IsbL-0600_LatLon0.15_PT003H.grib2 2026-05-01 03:55 519K
20260501T00Z_MSC_GDPS_GeopotentialHeight_IsbL-0650_LatLon0.15_PT003H.grib2 2026-05-01 03:55 683K
20260501T00Z_MSC_GDPS_GeopotentialHeight_IsbL-0700_LatLon0.15_PT003H.grib2 2026-05-01 03:55 683K
20260501T00Z_MSC_GDPS_GeopotentialHeight_IsbL-0750_LatLon0.15_PT003H.grib2 2026-05-01 03:55 682K
20260501T00Z_MSC_GDPS_GeopotentialHeight_IsbL-0800_LatLon0.15_PT003H.grib2 2026-05-01 03:55 697K
20260501T00Z_MSC_GDPS_GeopotentialHeight_IsbL-0850_LatLon0.15_PT003H.grib2 2026-05-01 03:55 707K
20260501T00Z_MSC_GDPS_GeopotentialHeight_IsbL-0875_LatLon0.15_PT003H.grib2 2026-05-01 03:55 710K
20260501T00Z_MSC_GDPS_GeopotentialHeight_IsbL-0900_LatLon0.15_PT003H.grib2 2026-05-01 03:55 714K
20260501T00Z_MSC_GDPS_GeopotentialHeight_IsbL-0925_LatLon0.15_PT003H.grib2 2026-05-01 03:55 725K
20260501T00Z_MSC_GDPS_GeopotentialHeight_IsbL-0950_LatLon0.15_PT003H.grib2 2026-05-01 03:55 733K
20260501T00Z_MSC_GDPS_GeopotentialHeight_IsbL-0970_LatLon0.15_PT003H.grib2 2026-05-01 03:55 744K
20260501T00Z_MSC_GDPS_GeopotentialHeight_IsbL-0985_LatLon0.15_PT003H.grib2 2026-05-01 03:55 759K
20260501T00Z_MSC_GDPS_GeopotentialHeight_IsbL-1000_LatLon0.15_PT003H.grib2 2026-05-01 03:55 780K
20260501T00Z_MSC_GDPS_GeopotentialHeight_IsbL-1015_LatLon0.15_PT003H.grib2 2026-05-01 03:55 801K
20260501T00Z_MSC_GDPS_Humidex_Sfc_LatLon0.15_PT003H.grib2 2026-05-01 03:55 5.3M
20260501T00Z_MSC_GDPS_IcePellets-Accum1h_Sfc_LatLon0.15_PT003H.grib2 2026-05-01 03:55 11K
20260501T00Z_MSC_GDPS_IcePellets-Accum3h_Sfc_LatLon0.15_PT003H.grib2 2026-05-01 03:55 13K
20260501T00Z_MSC_GDPS_IcePellets-Accum_Sfc_LatLon0.15_PT003H.grib2 2026-05-01 03:55 15K
20260501T00Z_MSC_GDPS_KIndex_Sfc_LatLon0.15_PT003H.grib2 2026-05-01 03:55 6.3M
20260501T00Z_MSC_GDPS_LatentHeatNetFlux_Sfc_LatLon0.15_PT003H.grib2 2026-05-01 03:55 502K
20260501T00Z_MSC_GDPS_LiftedIndex-MU-VT_IsbL-0500_LatLon0.15_PT003H.grib2 2026-05-01 03:55 5.3M
20260501T00Z_MSC_GDPS_NetLongwaveRadiationFlux-Accum_Sfc_LatLon0.15_PT003H.grib2 2026-05-01 03:55 1.2M
20260501T00Z_MSC_GDPS_NetShortwaveRadiationFlux-Accum_Sfc_LatLon0.15_PT003H.grib2 2026-05-01 03:55 545K
20260501T00Z_MSC_GDPS_O3MixingRatio_Sfc_LatLon0.15_PT003H.grib2 2026-05-01 04:49 2.4M
20260501T00Z_MSC_GDPS_O3_EAtm_LatLon0.15_PT003H.grib2 2026-05-01 04:49 2.5M
20260501T00Z_MSC_GDPS_PlanetaryBoundaryLayerHeight_Sfc_LatLon0.15_PT003H.grib2 2026-05-01 03:55 2.4M
20260501T00Z_MSC_GDPS_Precip-Accum1h_Sfc_LatLon0.15_PT003H.grib2 2026-05-01 03:55 3.1M
20260501T00Z_MSC_GDPS_Precip-Accum3h_Sfc_LatLon0.15_PT003H.grib2 2026-05-01 03:55 3.3M
20260501T00Z_MSC_GDPS_Precip-Accum_Sfc_LatLon0.15_PT003H.grib2 2026-05-01 03:55 3.2M
20260501T00Z_MSC_GDPS_PrecipRate_Sfc_LatLon0.15_PT003H.grib2 2026-05-01 03:55 2.9M
20260501T00Z_MSC_GDPS_PrecipType-Instant_Sfc_LatLon0.15_PT003H.grib2 2026-05-01 03:55 1.4M
20260501T00Z_MSC_GDPS_Pressure_MSL_LatLon0.15_PT003H.grib2 2026-05-01 03:55 823K
20260501T00Z_MSC_GDPS_Pressure_PVU-1.5_LatLon0.15_PT003H.grib2 2026-05-01 03:55 5.8M
20260501T00Z_MSC_GDPS_Pressure_PVU-1_LatLon0.15_PT003H.grib2 2026-05-01 03:55 6.0M
20260501T00Z_MSC_GDPS_Pressure_PVU-2_LatLon0.15_PT003H.grib2 2026-05-01 03:55 5.6M
20260501T00Z_MSC_GDPS_Pressure_Sfc_LatLon0.15_PT003H.grib2 2026-05-01 03:55 1.1M
20260501T00Z_MSC_GDPS_RadiativeTemp_Sfc_LatLon0.15_PT003H.grib2 2026-05-01 03:55 655K
20260501T00Z_MSC_GDPS_Rain-Accum1h_Sfc_LatLon0.15_PT003H.grib2 2026-05-01 03:55 1.5M
20260501T00Z_MSC_GDPS_Rain-Accum3h_Sfc_LatLon0.15_PT003H.grib2 2026-05-01 03:55 1.7M
20260501T00Z_MSC_GDPS_Rain-Accum_Sfc_LatLon0.15_PT003H.grib2 2026-05-01 03:55 2.2M
20260501T00Z_MSC_GDPS_RelativeHumidity_AGL-2m_LatLon0.15_PT003H.grib2 2026-05-01 03:55 1.1M
20260501T00Z_MSC_GDPS_RelativeHumidity_IsbL-0010_LatLon0.15_PT003H.grib2 2026-05-01 03:55 205K
20260501T00Z_MSC_GDPS_RelativeHumidity_IsbL-0020_LatLon0.15_PT003H.grib2 2026-05-01 03:55 176K
20260501T00Z_MSC_GDPS_RelativeHumidity_IsbL-0030_LatLon0.15_PT003H.grib2 2026-05-01 03:55 272K
20260501T00Z_MSC_GDPS_RelativeHumidity_IsbL-0050_LatLon0.15_PT003H.grib2 2026-05-01 03:55 419K
20260501T00Z_MSC_GDPS_RelativeHumidity_IsbL-0100_LatLon0.15_PT003H.grib2 2026-05-01 03:55 512K
20260501T00Z_MSC_GDPS_RelativeHumidity_IsbL-0150_LatLon0.15_PT003H.grib2 2026-05-01 03:55 658K
20260501T00Z_MSC_GDPS_RelativeHumidity_IsbL-0175_LatLon0.15_PT003H.grib2 2026-05-01 03:55 768K
20260501T00Z_MSC_GDPS_RelativeHumidity_IsbL-0200_LatLon0.15_PT003H.grib2 2026-05-01 03:55 689K
20260501T00Z_MSC_GDPS_RelativeHumidity_IsbL-0225_LatLon0.15_PT003H.grib2 2026-05-01 03:55 780K
20260501T00Z_MSC_GDPS_RelativeHumidity_IsbL-0250_LatLon0.15_PT003H.grib2 2026-05-01 03:55 861K
20260501T00Z_MSC_GDPS_RelativeHumidity_IsbL-0275_LatLon0.15_PT003H.grib2 2026-05-01 03:55 878K
20260501T00Z_MSC_GDPS_RelativeHumidity_IsbL-0300_LatLon0.15_PT003H.grib2 2026-05-01 03:55 922K
20260501T00Z_MSC_GDPS_RelativeHumidity_IsbL-0350_LatLon0.15_PT003H.grib2 2026-05-01 03:55 940K
20260501T00Z_MSC_GDPS_RelativeHumidity_IsbL-0400_LatLon0.15_PT003H.grib2 2026-05-01 03:55 962K
20260501T00Z_MSC_GDPS_RelativeHumidity_IsbL-0450_LatLon0.15_PT003H.grib2 2026-05-01 03:55 1.0M
20260501T00Z_MSC_GDPS_RelativeHumidity_IsbL-0500_LatLon0.15_PT003H.grib2 2026-05-01 03:55 1.0M
20260501T00Z_MSC_GDPS_RelativeHumidity_IsbL-0550_LatLon0.15_PT003H.grib2 2026-05-01 03:55 1.1M
20260501T00Z_MSC_GDPS_RelativeHumidity_IsbL-0600_LatLon0.15_PT003H.grib2 2026-05-01 03:55 1.1M
20260501T00Z_MSC_GDPS_RelativeHumidity_IsbL-0650_LatLon0.15_PT003H.grib2 2026-05-01 03:55 1.1M
20260501T00Z_MSC_GDPS_RelativeHumidity_IsbL-0700_LatLon0.15_PT003H.grib2 2026-05-01 03:55 1.1M
20260501T00Z_MSC_GDPS_RelativeHumidity_IsbL-0750_LatLon0.15_PT003H.grib2 2026-05-01 03:55 1.2M
20260501T00Z_MSC_GDPS_RelativeHumidity_IsbL-0800_LatLon0.15_PT003H.grib2 2026-05-01 03:55 1.2M
20260501T00Z_MSC_GDPS_RelativeHumidity_IsbL-0850_LatLon0.15_PT003H.grib2 2026-05-01 03:55 1.3M
20260501T00Z_MSC_GDPS_RelativeHumidity_IsbL-0875_LatLon0.15_PT003H.grib2 2026-05-01 03:55 1.3M
20260501T00Z_MSC_GDPS_RelativeHumidity_IsbL-0900_LatLon0.15_PT003H.grib2 2026-05-01 03:55 1.3M
20260501T00Z_MSC_GDPS_RelativeHumidity_IsbL-0925_LatLon0.15_PT003H.grib2 2026-05-01 03:55 1.2M
20260501T00Z_MSC_GDPS_RelativeHumidity_IsbL-0950_LatLon0.15_PT003H.grib2 2026-05-01 03:55 1.2M
20260501T00Z_MSC_GDPS_RelativeHumidity_IsbL-0970_LatLon0.15_PT003H.grib2 2026-05-01 03:55 1.2M
20260501T00Z_MSC_GDPS_RelativeHumidity_IsbL-0985_LatLon0.15_PT003H.grib2 2026-05-01 03:55 1.1M
20260501T00Z_MSC_GDPS_RelativeHumidity_IsbL-1000_LatLon0.15_PT003H.grib2 2026-05-01 03:55 1.1M
20260501T00Z_MSC_GDPS_RelativeHumidity_IsbL-1015_LatLon0.15_PT003H.grib2 2026-05-01 03:55 1.0M
20260501T00Z_MSC_GDPS_RelativeVorticity_IsbL-0200_LatLon0.15_PT003H.grib2 2026-05-01 03:55 1.5M
20260501T00Z_MSC_GDPS_RelativeVorticity_IsbL-0250_LatLon0.15_PT003H.grib2 2026-05-01 03:55 1.6M
20260501T00Z_MSC_GDPS_RelativeVorticity_IsbL-0500_LatLon0.15_PT003H.grib2 2026-05-01 03:55 1.4M
20260501T00Z_MSC_GDPS_RelativeVorticity_IsbL-0700_LatLon0.15_PT003H.grib2 2026-05-01 03:55 1.6M
20260501T00Z_MSC_GDPS_RelativeVorticity_IsbL-0850_LatLon0.15_PT003H.grib2 2026-05-01 03:55 1.6M
20260501T00Z_MSC_GDPS_Runoff-Accum_Sfc_LatLon0.15_PT003H.grib2 2026-05-01 03:55 60K
20260501T00Z_MSC_GDPS_SensibleHeatNetFlux_Sfc_LatLon0.15_PT003H.grib2 2026-05-01 03:55 614K
20260501T00Z_MSC_GDPS_ShowalterIndex_IsbL-0500_LatLon0.15_PT003H.grib2 2026-05-01 03:55 6.2M
20260501T00Z_MSC_GDPS_Snow-Accum1h_Sfc_LatLon0.15_PT003H.grib2 2026-05-01 03:55 1.1M
20260501T00Z_MSC_GDPS_Snow-Accum3h_Sfc_LatLon0.15_PT003H.grib2 2026-05-01 03:55 1.1M
20260501T00Z_MSC_GDPS_Snow-Accum_Sfc_LatLon0.15_PT003H.grib2 2026-05-01 03:55 1.6M
20260501T00Z_MSC_GDPS_SnowDensity_Sfc_LatLon0.15_PT003H.grib2 2026-05-01 03:55 252K
20260501T00Z_MSC_GDPS_SnowDepth_Sfc_LatLon0.15_PT003H.grib2 2026-05-01 03:55 1.7M
20260501T00Z_MSC_GDPS_SoilTemp_DBS-0to10cm_LatLon0.15_PT003H.grib2 2026-05-01 03:55 491K
20260501T00Z_MSC_GDPS_SoilTemp_Sfc_LatLon0.15_PT003H.grib2 2026-05-01 03:55 561K
20260501T00Z_MSC_GDPS_SoilVolumetricIceContent_Sfc_LatLon0.15_PT003H.grib2 2026-05-01 03:55 206K
20260501T00Z_MSC_GDPS_SoilVolumetricWaterContent_DBS-0to10cm_LatLon0.15_PT003H.grib2 2026-05-01 03:55 585K
20260501T00Z_MSC_GDPS_SoilVolumetricWaterContent_DBS-0to1cm_LatLon0.15_PT003H.grib2 2026-05-01 03:55 646K
20260501T00Z_MSC_GDPS_SpecificHumidity_AGL-120m_LatLon0.15_PT003H.grib2 2026-05-01 03:55 1.1M
20260501T00Z_MSC_GDPS_SpecificHumidity_AGL-2m_LatLon0.15_PT003H.grib2 2026-05-01 03:55 1.2M
20260501T00Z_MSC_GDPS_SpecificHumidity_AGL-40m_LatLon0.15_PT003H.grib2 2026-05-01 03:55 1.1M
20260501T00Z_MSC_GDPS_SpecificHumidity_AGL-80m_LatLon0.15_PT003H.grib2 2026-05-01 03:55 1.1M
20260501T00Z_MSC_GDPS_SpecificHumidity_IsbL-0001_LatLon0.15_PT003H.grib2 2026-05-01 03:55 1.1M
20260501T00Z_MSC_GDPS_SpecificHumidity_IsbL-0005_LatLon0.15_PT003H.grib2 2026-05-01 03:55 1.3M
20260501T00Z_MSC_GDPS_SpecificHumidity_IsbL-0010_LatLon0.15_PT003H.grib2 2026-05-01 03:55 1.4M
20260501T00Z_MSC_GDPS_SpecificHumidity_IsbL-0020_LatLon0.15_PT003H.grib2 2026-05-01 03:55 1.4M
20260501T00Z_MSC_GDPS_SpecificHumidity_IsbL-0030_LatLon0.15_PT003H.grib2 2026-05-01 03:55 1.4M
20260501T00Z_MSC_GDPS_SpecificHumidity_IsbL-0050_LatLon0.15_PT003H.grib2 2026-05-01 03:55 1.7M
20260501T00Z_MSC_GDPS_SpecificHumidity_IsbL-0100_LatLon0.15_PT003H.grib2 2026-05-01 03:55 1.4M
20260501T00Z_MSC_GDPS_SpecificHumidity_IsbL-0150_LatLon0.15_PT003H.grib2 2026-05-01 03:55 1.3M
20260501T00Z_MSC_GDPS_SpecificHumidity_IsbL-0175_LatLon0.15_PT003H.grib2 2026-05-01 03:55 1.2M
20260501T00Z_MSC_GDPS_SpecificHumidity_IsbL-0200_LatLon0.15_PT003H.grib2 2026-05-01 03:55 1.3M
20260501T00Z_MSC_GDPS_SpecificHumidity_IsbL-0225_LatLon0.15_PT003H.grib2 2026-05-01 03:55 1.3M
20260501T00Z_MSC_GDPS_SpecificHumidity_IsbL-0250_LatLon0.15_PT003H.grib2 2026-05-01 03:55 1.5M
20260501T00Z_MSC_GDPS_SpecificHumidity_IsbL-0275_LatLon0.15_PT003H.grib2 2026-05-01 03:55 1.3M
20260501T00Z_MSC_GDPS_SpecificHumidity_IsbL-0300_LatLon0.15_PT003H.grib2 2026-05-01 03:55 1.2M
20260501T00Z_MSC_GDPS_SpecificHumidity_IsbL-0350_LatLon0.15_PT003H.grib2 2026-05-01 03:55 1.2M
20260501T00Z_MSC_GDPS_SpecificHumidity_IsbL-0400_LatLon0.15_PT003H.grib2 2026-05-01 03:55 1.4M
20260501T00Z_MSC_GDPS_SpecificHumidity_IsbL-0450_LatLon0.15_PT003H.grib2 2026-05-01 03:55 1.3M
20260501T00Z_MSC_GDPS_SpecificHumidity_IsbL-0500_LatLon0.15_PT003H.grib2 2026-05-01 03:55 1.4M
20260501T00Z_MSC_GDPS_SpecificHumidity_IsbL-0550_LatLon0.15_PT003H.grib2 2026-05-01 03:55 1.6M
20260501T00Z_MSC_GDPS_SpecificHumidity_IsbL-0600_LatLon0.15_PT003H.grib2 2026-05-01 03:55 1.7M
20260501T00Z_MSC_GDPS_SpecificHumidity_IsbL-0650_LatLon0.15_PT003H.grib2 2026-05-01 03:55 1.5M
20260501T00Z_MSC_GDPS_SpecificHumidity_IsbL-0700_LatLon0.15_PT003H.grib2 2026-05-01 03:55 1.6M
20260501T00Z_MSC_GDPS_SpecificHumidity_IsbL-0750_LatLon0.15_PT003H.grib2 2026-05-01 03:55 1.7M
20260501T00Z_MSC_GDPS_SpecificHumidity_IsbL-0800_LatLon0.15_PT003H.grib2 2026-05-01 03:55 1.8M
20260501T00Z_MSC_GDPS_SpecificHumidity_IsbL-0850_LatLon0.15_PT003H.grib2 2026-05-01 03:55 1.9M
20260501T00Z_MSC_GDPS_SpecificHumidity_IsbL-0875_LatLon0.15_PT003H.grib2 2026-05-01 03:55 1.9M
20260501T00Z_MSC_GDPS_SpecificHumidity_IsbL-0900_LatLon0.15_PT003H.grib2 2026-05-01 03:55 1.9M
20260501T00Z_MSC_GDPS_SpecificHumidity_IsbL-0925_LatLon0.15_PT003H.grib2 2026-05-01 03:55 1.9M
20260501T00Z_MSC_GDPS_SpecificHumidity_IsbL-0950_LatLon0.15_PT003H.grib2 2026-05-01 03:55 1.5M
20260501T00Z_MSC_GDPS_SpecificHumidity_IsbL-0970_LatLon0.15_PT003H.grib2 2026-05-01 03:55 1.5M
20260501T00Z_MSC_GDPS_SpecificHumidity_IsbL-0985_LatLon0.15_PT003H.grib2 2026-05-01 03:55 1.5M
20260501T00Z_MSC_GDPS_SpecificHumidity_IsbL-1000_LatLon0.15_PT003H.grib2 2026-05-01 03:55 1.5M
20260501T00Z_MSC_GDPS_SpecificHumidity_IsbL-1015_LatLon0.15_PT003H.grib2 2026-05-01 03:55 1.4M
20260501T00Z_MSC_GDPS_SpecificHumidity_Sfc_LatLon0.15_PT003H.grib2 2026-05-01 03:55 625K
20260501T00Z_MSC_GDPS_Thickness_IsbL-0850to0700_LatLon0.15_PT003H.grib2 2026-05-01 03:55 462K
20260501T00Z_MSC_GDPS_Thickness_IsbL-1000to0500_LatLon0.15_PT003H.grib2 2026-05-01 03:55 364K
20260501T00Z_MSC_GDPS_Thickness_IsbL-1000to0850_LatLon0.15_PT003H.grib2 2026-05-01 03:55 481K
20260501T00Z_MSC_GDPS_TotalCloudCover_Sfc_LatLon0.15_PT003H.grib2 2026-05-01 03:55 820K
20260501T00Z_MSC_GDPS_TotalTotalsIndex_Sfc_LatLon0.15_PT003H.grib2 2026-05-01 03:55 6.1M
20260501T00Z_MSC_GDPS_UVIndex-ClearSky_Sfc_LatLon0.15_PT003H.grib2 2026-05-01 04:49 1.0M
20260501T00Z_MSC_GDPS_UVIndex_Sfc_LatLon0.15_PT003H.grib2 2026-05-01 04:49 1.5M
20260501T00Z_MSC_GDPS_UpwardLongwaveRadiationFlux_NTAtm_LatLon0.15_PT003H.grib2 2026-05-01 03:55 1.0M
20260501T00Z_MSC_GDPS_VerticalVelocity_IsbL-0200_LatLon0.15_PT003H.grib2 2026-05-01 03:55 1.2M
20260501T00Z_MSC_GDPS_VerticalVelocity_IsbL-0250_LatLon0.15_PT003H.grib2 2026-05-01 03:55 1.0M
20260501T00Z_MSC_GDPS_VerticalVelocity_IsbL-0500_LatLon0.15_PT003H.grib2 2026-05-01 03:55 1.3M
20260501T00Z_MSC_GDPS_VerticalVelocity_IsbL-0600_LatLon0.15_PT003H.grib2 2026-05-01 03:55 1.3M
20260501T00Z_MSC_GDPS_VerticalVelocity_IsbL-0700_LatLon0.15_PT003H.grib2 2026-05-01 03:55 1.1M
20260501T00Z_MSC_GDPS_VerticalVelocity_IsbL-0850_LatLon0.15_PT003H.grib2 2026-05-01 03:55 1.3M
20260501T00Z_MSC_GDPS_WindChill_Sfc_LatLon0.15_PT003H.grib2 2026-05-01 03:55 5.3M
20260501T00Z_MSC_GDPS_WindDir_AGL-10m_LatLon0.15_PT003H.grib2 2026-05-01 03:55 1.3M
20260501T00Z_MSC_GDPS_WindDir_AGL-120m_LatLon0.15_PT003H.grib2 2026-05-01 03:55 1.3M
20260501T00Z_MSC_GDPS_WindDir_AGL-40m_LatLon0.15_PT003H.grib2 2026-05-01 03:55 1.4M
20260501T00Z_MSC_GDPS_WindDir_AGL-80m_LatLon0.15_PT003H.grib2 2026-05-01 03:55 1.4M
20260501T00Z_MSC_GDPS_WindDir_IsbL-0001_LatLon0.15_PT003H.grib2 2026-05-01 03:55 711K
20260501T00Z_MSC_GDPS_WindDir_IsbL-0005_LatLon0.15_PT003H.grib2 2026-05-01 03:55 813K
20260501T00Z_MSC_GDPS_WindDir_IsbL-0010_LatLon0.15_PT003H.grib2 2026-05-01 03:55 866K
20260501T00Z_MSC_GDPS_WindDir_IsbL-0020_LatLon0.15_PT003H.grib2 2026-05-01 03:55 954K
20260501T00Z_MSC_GDPS_WindDir_IsbL-0030_LatLon0.15_PT003H.grib2 2026-05-01 03:55 942K
20260501T00Z_MSC_GDPS_WindDir_IsbL-0050_LatLon0.15_PT003H.grib2 2026-05-01 03:55 941K
20260501T00Z_MSC_GDPS_WindDir_IsbL-0100_LatLon0.15_PT003H.grib2 2026-05-01 03:55 1.0M
20260501T00Z_MSC_GDPS_WindDir_IsbL-0150_LatLon0.15_PT003H.grib2 2026-05-01 03:55 1.0M
20260501T00Z_MSC_GDPS_WindDir_IsbL-0175_LatLon0.15_PT003H.grib2 2026-05-01 03:55 1.1M
20260501T00Z_MSC_GDPS_WindDir_IsbL-0200_LatLon0.15_PT003H.grib2 2026-05-01 03:55 1.1M
20260501T00Z_MSC_GDPS_WindDir_IsbL-0225_LatLon0.15_PT003H.grib2 2026-05-01 03:55 1.1M
20260501T00Z_MSC_GDPS_WindDir_IsbL-0250_LatLon0.15_PT003H.grib2 2026-05-01 03:55 1.1M
20260501T00Z_MSC_GDPS_WindDir_IsbL-0275_LatLon0.15_PT003H.grib2 2026-05-01 03:55 1.2M
20260501T00Z_MSC_GDPS_WindDir_IsbL-0300_LatLon0.15_PT003H.grib2 2026-05-01 03:55 1.2M
20260501T00Z_MSC_GDPS_WindDir_IsbL-0350_LatLon0.15_PT003H.grib2 2026-05-01 03:55 1.2M
20260501T00Z_MSC_GDPS_WindDir_IsbL-0400_LatLon0.15_PT003H.grib2 2026-05-01 03:55 1.3M
20260501T00Z_MSC_GDPS_WindDir_IsbL-0450_LatLon0.15_PT003H.grib2 2026-05-01 03:55 1.3M
20260501T00Z_MSC_GDPS_WindDir_IsbL-0500_LatLon0.15_PT003H.grib2 2026-05-01 03:55 1.3M
20260501T00Z_MSC_GDPS_WindDir_IsbL-0550_LatLon0.15_PT003H.grib2 2026-05-01 03:55 1.4M
20260501T00Z_MSC_GDPS_WindDir_IsbL-0600_LatLon0.15_PT003H.grib2 2026-05-01 03:55 1.4M
20260501T00Z_MSC_GDPS_WindDir_IsbL-0650_LatLon0.15_PT003H.grib2 2026-05-01 03:55 1.5M
20260501T00Z_MSC_GDPS_WindDir_IsbL-0700_LatLon0.15_PT003H.grib2 2026-05-01 03:55 1.6M
20260501T00Z_MSC_GDPS_WindDir_IsbL-0750_LatLon0.15_PT003H.grib2 2026-05-01 03:55 1.7M
20260501T00Z_MSC_GDPS_WindDir_IsbL-0800_LatLon0.15_PT003H.grib2 2026-05-01 03:55 1.8M
20260501T00Z_MSC_GDPS_WindDir_IsbL-0850_LatLon0.15_PT003H.grib2 2026-05-01 03:55 1.9M
20260501T00Z_MSC_GDPS_WindDir_IsbL-0875_LatLon0.15_PT003H.grib2 2026-05-01 03:55 1.9M
20260501T00Z_MSC_GDPS_WindDir_IsbL-0900_LatLon0.15_PT003H.grib2 2026-05-01 03:55 1.9M
20260501T00Z_MSC_GDPS_WindDir_IsbL-0925_LatLon0.15_PT003H.grib2 2026-05-01 03:55 1.9M
20260501T00Z_MSC_GDPS_WindDir_IsbL-0950_LatLon0.15_PT003H.grib2 2026-05-01 03:55 1.9M
20260501T00Z_MSC_GDPS_WindDir_IsbL-0970_LatLon0.15_PT003H.grib2 2026-05-01 03:55 2.0M
20260501T00Z_MSC_GDPS_WindDir_IsbL-0985_LatLon0.15_PT003H.grib2 2026-05-01 03:55 2.0M
20260501T00Z_MSC_GDPS_WindDir_IsbL-1000_LatLon0.15_PT003H.grib2 2026-05-01 03:55 2.0M
20260501T00Z_MSC_GDPS_WindDir_IsbL-1015_LatLon0.15_PT003H.grib2 2026-05-01 03:55 2.0M
20260501T00Z_MSC_GDPS_WindGust-Max_AGL-10m_LatLon0.15_PT003H.grib2 2026-05-01 03:55 2.3M
20260501T00Z_MSC_GDPS_WindGust-Min_AGL-10m_LatLon0.15_PT003H.grib2 2026-05-01 03:55 2.2M
20260501T00Z_MSC_GDPS_WindGust_AGL-10m_LatLon0.15_PT003H.grib2 2026-05-01 03:55 2.2M
20260501T00Z_MSC_GDPS_WindSpeed_AGL-10m_LatLon0.15_PT003H.grib2 2026-05-01 03:55 1.1M
20260501T00Z_MSC_GDPS_WindSpeed_AGL-120m_LatLon0.15_PT003H.grib2 2026-05-01 03:55 1.2M
20260501T00Z_MSC_GDPS_WindSpeed_AGL-40m_LatLon0.15_PT003H.grib2 2026-05-01 03:55 1.2M
20260501T00Z_MSC_GDPS_WindSpeed_AGL-80m_LatLon0.15_PT003H.grib2 2026-05-01 03:55 1.2M
20260501T00Z_MSC_GDPS_WindSpeed_IsbL-0001_LatLon0.15_PT003H.grib2 2026-05-01 03:55 646K
20260501T00Z_MSC_GDPS_WindSpeed_IsbL-0005_LatLon0.15_PT003H.grib2 2026-05-01 03:55 620K
20260501T00Z_MSC_GDPS_WindSpeed_IsbL-0010_LatLon0.15_PT003H.grib2 2026-05-01 03:55 636K
20260501T00Z_MSC_GDPS_WindSpeed_IsbL-0020_LatLon0.15_PT003H.grib2 2026-05-01 03:55 867K
20260501T00Z_MSC_GDPS_WindSpeed_IsbL-0030_LatLon0.15_PT003H.grib2 2026-05-01 03:55 872K
20260501T00Z_MSC_GDPS_WindSpeed_IsbL-0050_LatLon0.15_PT003H.grib2 2026-05-01 03:55 914K
20260501T00Z_MSC_GDPS_WindSpeed_IsbL-0100_LatLon0.15_PT003H.grib2 2026-05-01 03:55 1.1M
20260501T00Z_MSC_GDPS_WindSpeed_IsbL-0150_LatLon0.15_PT003H.grib2 2026-05-01 03:55 1.0M
20260501T00Z_MSC_GDPS_WindSpeed_IsbL-0175_LatLon0.15_PT003H.grib2 2026-05-01 03:55 1.0M
20260501T00Z_MSC_GDPS_WindSpeed_IsbL-0200_LatLon0.15_PT003H.grib2 2026-05-01 03:55 1.1M
20260501T00Z_MSC_GDPS_WindSpeed_IsbL-0225_LatLon0.15_PT003H.grib2 2026-05-01 03:55 1.1M
20260501T00Z_MSC_GDPS_WindSpeed_IsbL-0250_LatLon0.15_PT003H.grib2 2026-05-01 03:55 1.1M
20260501T00Z_MSC_GDPS_WindSpeed_IsbL-0275_LatLon0.15_PT003H.grib2 2026-05-01 03:55 1.1M
20260501T00Z_MSC_GDPS_WindSpeed_IsbL-0300_LatLon0.15_PT003H.grib2 2026-05-01 03:55 1.1M
20260501T00Z_MSC_GDPS_WindSpeed_IsbL-0350_LatLon0.15_PT003H.grib2 2026-05-01 03:55 1.1M
20260501T00Z_MSC_GDPS_WindSpeed_IsbL-0400_LatLon0.15_PT003H.grib2 2026-05-01 03:55 1.1M
20260501T00Z_MSC_GDPS_WindSpeed_IsbL-0450_LatLon0.15_PT003H.grib2 2026-05-01 03:55 1.1M
20260501T00Z_MSC_GDPS_WindSpeed_IsbL-0500_LatLon0.15_PT003H.grib2 2026-05-01 03:55 1.1M
20260501T00Z_MSC_GDPS_WindSpeed_IsbL-0550_LatLon0.15_PT003H.grib2 2026-05-01 03:55 1.1M
20260501T00Z_MSC_GDPS_WindSpeed_IsbL-0600_LatLon0.15_PT003H.grib2 2026-05-01 03:55 1.1M
20260501T00Z_MSC_GDPS_WindSpeed_IsbL-0650_LatLon0.15_PT003H.grib2 2026-05-01 03:55 1.2M
20260501T00Z_MSC_GDPS_WindSpeed_IsbL-0700_LatLon0.15_PT003H.grib2 2026-05-01 03:55 1.5M
20260501T00Z_MSC_GDPS_WindSpeed_IsbL-0750_LatLon0.15_PT003H.grib2 2026-05-01 03:55 1.6M
20260501T00Z_MSC_GDPS_WindSpeed_IsbL-0800_LatLon0.15_PT003H.grib2 2026-05-01 03:55 1.7M
20260501T00Z_MSC_GDPS_WindSpeed_IsbL-0850_LatLon0.15_PT003H.grib2 2026-05-01 03:55 1.8M
20260501T00Z_MSC_GDPS_WindSpeed_IsbL-0875_LatLon0.15_PT003H.grib2 2026-05-01 03:55 1.9M
20260501T00Z_MSC_GDPS_WindSpeed_IsbL-0900_LatLon0.15_PT003H.grib2 2026-05-01 03:55 1.9M
20260501T00Z_MSC_GDPS_WindSpeed_IsbL-0925_LatLon0.15_PT003H.grib2 2026-05-01 03:55 1.9M
20260501T00Z_MSC_GDPS_WindSpeed_IsbL-0950_LatLon0.15_PT003H.grib2 2026-05-01 03:55 1.9M
20260501T00Z_MSC_GDPS_WindSpeed_IsbL-0970_LatLon0.15_PT003H.grib2 2026-05-01 03:55 1.9M
20260501T00Z_MSC_GDPS_WindSpeed_IsbL-0985_LatLon0.15_PT003H.grib2 2026-05-01 03:55 1.8M
20260501T00Z_MSC_GDPS_WindSpeed_IsbL-1000_LatLon0.15_PT003H.grib2 2026-05-01 03:55 1.8M
20260501T00Z_MSC_GDPS_WindSpeed_IsbL-1015_LatLon0.15_PT003H.grib2 2026-05-01 03:55 1.8M
20260501T00Z_MSC_GDPS_WindU_AGL-10m_LatLon0.15_PT003H.grib2 2026-05-01 03:55 1.3M
20260501T00Z_MSC_GDPS_WindU_AGL-120m_LatLon0.15_PT003H.grib2 2026-05-01 03:55 969K
20260501T00Z_MSC_GDPS_WindU_AGL-40m_LatLon0.15_PT003H.grib2 2026-05-01 03:55 964K
20260501T00Z_MSC_GDPS_WindU_AGL-80m_LatLon0.15_PT003H.grib2 2026-05-01 03:55 969K
20260501T00Z_MSC_GDPS_WindU_IsbL-0001_LatLon0.15_PT003H.grib2 2026-05-01 03:55 647K
20260501T00Z_MSC_GDPS_WindU_IsbL-0005_LatLon0.15_PT003H.grib2 2026-05-01 03:55 700K
20260501T00Z_MSC_GDPS_WindU_IsbL-0010_LatLon0.15_PT003H.grib2 2026-05-01 03:55 709K
20260501T00Z_MSC_GDPS_WindU_IsbL-0020_LatLon0.15_PT003H.grib2 2026-05-01 03:55 739K
20260501T00Z_MSC_GDPS_WindU_IsbL-0030_LatLon0.15_PT003H.grib2 2026-05-01 03:55 746K
20260501T00Z_MSC_GDPS_WindU_IsbL-0050_LatLon0.15_PT003H.grib2 2026-05-01 03:55 777K
20260501T00Z_MSC_GDPS_WindU_IsbL-0100_LatLon0.15_PT003H.grib2 2026-05-01 03:55 919K
20260501T00Z_MSC_GDPS_WindU_IsbL-0150_LatLon0.15_PT003H.grib2 2026-05-01 03:55 1.0M
20260501T00Z_MSC_GDPS_WindU_IsbL-0175_LatLon0.15_PT003H.grib2 2026-05-01 03:55 1.0M
20260501T00Z_MSC_GDPS_WindU_IsbL-0200_LatLon0.15_PT003H.grib2 2026-05-01 03:55 1.0M
20260501T00Z_MSC_GDPS_WindU_IsbL-0225_LatLon0.15_PT003H.grib2 2026-05-01 03:55 849K
20260501T00Z_MSC_GDPS_WindU_IsbL-0250_LatLon0.15_PT003H.grib2 2026-05-01 03:55 852K
20260501T00Z_MSC_GDPS_WindU_IsbL-0275_LatLon0.15_PT003H.grib2 2026-05-01 03:55 879K
20260501T00Z_MSC_GDPS_WindU_IsbL-0300_LatLon0.15_PT003H.grib2 2026-05-01 03:55 869K
20260501T00Z_MSC_GDPS_WindU_IsbL-0350_LatLon0.15_PT003H.grib2 2026-05-01 03:55 885K
20260501T00Z_MSC_GDPS_WindU_IsbL-0400_LatLon0.15_PT003H.grib2 2026-05-01 03:55 1.1M
20260501T00Z_MSC_GDPS_WindU_IsbL-0450_LatLon0.15_PT003H.grib2 2026-05-01 03:55 1.1M
20260501T00Z_MSC_GDPS_WindU_IsbL-0500_LatLon0.15_PT003H.grib2 2026-05-01 03:55 1.1M
20260501T00Z_MSC_GDPS_WindU_IsbL-0550_LatLon0.15_PT003H.grib2 2026-05-01 03:55 1.1M
20260501T00Z_MSC_GDPS_WindU_IsbL-0600_LatLon0.15_PT003H.grib2 2026-05-01 03:55 1.1M
20260501T00Z_MSC_GDPS_WindU_IsbL-0650_LatLon0.15_PT003H.grib2 2026-05-01 03:55 1.2M
20260501T00Z_MSC_GDPS_WindU_IsbL-0700_LatLon0.15_PT003H.grib2 2026-05-01 03:55 1.2M
20260501T00Z_MSC_GDPS_WindU_IsbL-0750_LatLon0.15_PT003H.grib2 2026-05-01 03:55 1.3M
20260501T00Z_MSC_GDPS_WindU_IsbL-0800_LatLon0.15_PT003H.grib2 2026-05-01 03:55 1.3M
20260501T00Z_MSC_GDPS_WindU_IsbL-0850_LatLon0.15_PT003H.grib2 2026-05-01 03:55 1.4M
20260501T00Z_MSC_GDPS_WindU_IsbL-0875_LatLon0.15_PT003H.grib2 2026-05-01 03:55 1.4M
20260501T00Z_MSC_GDPS_WindU_IsbL-0900_LatLon0.15_PT003H.grib2 2026-05-01 03:55 1.4M
20260501T00Z_MSC_GDPS_WindU_IsbL-0925_LatLon0.15_PT003H.grib2 2026-05-01 03:55 1.4M
20260501T00Z_MSC_GDPS_WindU_IsbL-0950_LatLon0.15_PT003H.grib2 2026-05-01 03:55 1.4M
20260501T00Z_MSC_GDPS_WindU_IsbL-0970_LatLon0.15_PT003H.grib2 2026-05-01 03:55 1.4M
20260501T00Z_MSC_GDPS_WindU_IsbL-0985_LatLon0.15_PT003H.grib2 2026-05-01 03:55 1.4M
20260501T00Z_MSC_GDPS_WindU_IsbL-1000_LatLon0.15_PT003H.grib2 2026-05-01 03:55 1.4M
20260501T00Z_MSC_GDPS_WindU_IsbL-1015_LatLon0.15_PT003H.grib2 2026-05-01 03:55 1.3M
20260501T00Z_MSC_GDPS_WindV_AGL-10m_LatLon0.15_PT003H.grib2 2026-05-01 03:55 1.5M
20260501T00Z_MSC_GDPS_WindV_AGL-120m_LatLon0.15_PT003H.grib2 2026-05-01 03:55 966K
20260501T00Z_MSC_GDPS_WindV_AGL-40m_LatLon0.15_PT003H.grib2 2026-05-01 03:55 1.2M
20260501T00Z_MSC_GDPS_WindV_AGL-80m_LatLon0.15_PT003H.grib2 2026-05-01 03:55 965K
20260501T00Z_MSC_GDPS_WindV_IsbL-0001_LatLon0.15_PT003H.grib2 2026-05-01 03:55 715K
20260501T00Z_MSC_GDPS_WindV_IsbL-0005_LatLon0.15_PT003H.grib2 2026-05-01 03:55 770K
20260501T00Z_MSC_GDPS_WindV_IsbL-0010_LatLon0.15_PT003H.grib2 2026-05-01 03:55 802K
20260501T00Z_MSC_GDPS_WindV_IsbL-0020_LatLon0.15_PT003H.grib2 2026-05-01 03:55 856K
20260501T00Z_MSC_GDPS_WindV_IsbL-0030_LatLon0.15_PT003H.grib2 2026-05-01 03:55 858K
20260501T00Z_MSC_GDPS_WindV_IsbL-0050_LatLon0.15_PT003H.grib2 2026-05-01 03:55 910K
20260501T00Z_MSC_GDPS_WindV_IsbL-0100_LatLon0.15_PT003H.grib2 2026-05-01 03:55 1.1M
20260501T00Z_MSC_GDPS_WindV_IsbL-0150_LatLon0.15_PT003H.grib2 2026-05-01 03:55 1.0M
20260501T00Z_MSC_GDPS_WindV_IsbL-0175_LatLon0.15_PT003H.grib2 2026-05-01 03:55 1.0M
20260501T00Z_MSC_GDPS_WindV_IsbL-0200_LatLon0.15_PT003H.grib2 2026-05-01 03:55 840K
20260501T00Z_MSC_GDPS_WindV_IsbL-0225_LatLon0.15_PT003H.grib2 2026-05-01 03:55 847K
20260501T00Z_MSC_GDPS_WindV_IsbL-0250_LatLon0.15_PT003H.grib2 2026-05-01 03:55 848K
20260501T00Z_MSC_GDPS_WindV_IsbL-0275_LatLon0.15_PT003H.grib2 2026-05-01 03:55 875K
20260501T00Z_MSC_GDPS_WindV_IsbL-0300_LatLon0.15_PT003H.grib2 2026-05-01 03:55 863K
20260501T00Z_MSC_GDPS_WindV_IsbL-0350_LatLon0.15_PT003H.grib2 2026-05-01 03:55 878K
20260501T00Z_MSC_GDPS_WindV_IsbL-0400_LatLon0.15_PT003H.grib2 2026-05-01 03:55 882K
20260501T00Z_MSC_GDPS_WindV_IsbL-0450_LatLon0.15_PT003H.grib2 2026-05-01 03:55 1.1M
20260501T00Z_MSC_GDPS_WindV_IsbL-0500_LatLon0.15_PT003H.grib2 2026-05-01 03:55 1.1M
20260501T00Z_MSC_GDPS_WindV_IsbL-0550_LatLon0.15_PT003H.grib2 2026-05-01 03:55 1.1M
20260501T00Z_MSC_GDPS_WindV_IsbL-0600_LatLon0.15_PT003H.grib2 2026-05-01 03:55 1.1M
20260501T00Z_MSC_GDPS_WindV_IsbL-0650_LatLon0.15_PT003H.grib2 2026-05-01 03:55 1.2M
20260501T00Z_MSC_GDPS_WindV_IsbL-0700_LatLon0.15_PT003H.grib2 2026-05-01 03:55 1.2M
20260501T00Z_MSC_GDPS_WindV_IsbL-0750_LatLon0.15_PT003H.grib2 2026-05-01 03:55 1.2M
20260501T00Z_MSC_GDPS_WindV_IsbL-0800_LatLon0.15_PT003H.grib2 2026-05-01 03:55 1.3M
20260501T00Z_MSC_GDPS_WindV_IsbL-0850_LatLon0.15_PT003H.grib2 2026-05-01 03:55 1.4M
20260501T00Z_MSC_GDPS_WindV_IsbL-0875_LatLon0.15_PT003H.grib2 2026-05-01 03:55 1.4M
20260501T00Z_MSC_GDPS_WindV_IsbL-0900_LatLon0.15_PT003H.grib2 2026-05-01 03:55 1.4M
20260501T00Z_MSC_GDPS_WindV_IsbL-0925_LatLon0.15_PT003H.grib2 2026-05-01 03:55 1.4M
20260501T00Z_MSC_GDPS_WindV_IsbL-0950_LatLon0.15_PT003H.grib2 2026-05-01 03:55 1.4M
20260501T00Z_MSC_GDPS_WindV_IsbL-0970_LatLon0.15_PT003H.grib2 2026-05-01 03:55 1.4M
20260501T00Z_MSC_GDPS_WindV_IsbL-0985_LatLon0.15_PT003H.grib2 2026-05-01 03:55 1.4M
20260501T00Z_MSC_GDPS_WindV_IsbL-1000_LatLon0.15_PT003H.grib2 2026-05-01 03:55 1.7M
20260501T00Z_MSC_GDPS_WindV_IsbL-1015_LatLon0.15_PT003H.grib2 2026-05-01 03:55 1.6M